Location: Sternwarte_Laufen
(47.9344°N, 12.9346°E)
Time: 06:13:25
(UTC+02:00)

ISS - Pass Details

Date: 17 July 2018
Orbit: 402 x 408 km, 51.6° (Epoch: 21 July)

Event Time Altitude Azimuth Distance (km) Brightness Sun altitude
Exits shadow 01:41:16 33° 287° (WNW) 701 -2.6 -20.6°
Maximum altitude 01:42:24 53° 346° (NNW) 506 -3.1 -20.5°
Drops below altitude 10° 01:45:38 10° 65° (ENE) 1,472 -0.6 -20.5°
Sets 01:47:46 0° 70° (ENE) 2,335 0.4 -20.4°
